User: anonymous   Login
Location: Champs
(48.8539°N, 2.6040°E)
Time: 17:33:34
(UTC+00:00)
Language:

deb Kosmos-2150 - Orbit

View from above orbital plane
View from above orbital plane
View from above satellite
View from above satellite

Ground track
Ground track

The orbit data is extracted from the following two-line orbital elements,

1 21420U 91041C   22222.71229144  .00000531  00000-0  17183-3 0  9996
2 21420  74.0660  55.9803 0005108 351.7387 135.2418 14.41486930632524
Epoch (UTC): 10 August 2022 17:05:41
Eccentricity: 0.0005108
inclination: 74.0660°
perigee height: 750 km
apogee height: 757 km
right ascension of ascending node: 55.9803°
argument of perigee: 351.7387°
revolutions per day: 14.41486930
mean anomaly at epoch: 135.2418°
orbit number at epoch: 63252

The dashed part of the orbit path shows where the satellite is in the earth's shadow,  

DLR